timestamp,surface_pressure_avg,surface_temp_avg,battery_voltage,lat,long
2021-04-30 00:09:01+00:00,345.2279,5.01,13.21,47.84626,-54.09684
2021-04-30 00:19:01+00:00,358.4596,5.03,12.89,47.84626,-54.09684
2021-04-30 00:29:01+00:00,366.8962,5.05,12.89,47.84626,-54.09684
2021-04-30 00:39:01+00:00,369.18300000000005,5.02,12.89,47.84626,-54.09684
2021-04-30 00:49:01+00:00,373.9529,5.0,12.89,47.84626,-54.09684
2021-04-30 00:59:01+00:00,380.6663,5.0,12.89,47.84626,-54.09684
2021-04-30 01:09:01+00:00,382.9597,5.03,12.89,47.84626,-54.09684
2021-04-30 01:19:01+00:00,384.9846,5.06,12.65,47.84626,-54.09684
2021-04-30 01:29:01+00:00,392.7979,5.07,12.65,47.84626,-54.09684
2021-04-30 01:39:01+00:00,395.7929,5.08,12.65,47.84626,-54.09684
2021-04-30 01:49:01+00:00,392.6712,5.1,12.65,47.84626,-54.09684
2021-04-30 01:59:01+00:00,392.1879,5.1,12.65,47.84626,-54.09684
2021-04-30 02:09:01+00:00,392.8196,5.1,12.65,47.84626,-54.09684
2021-04-30 02:19:01+00:00,390.3929,5.1,12.65,47.84626,-54.09684
2021-04-30 02:29:01+00:00,384.4713,5.1,12.65,47.84626,-54.09684
2021-04-30 02:39:01+00:00,383.6929,5.1,12.65,47.84626,-54.09684
2021-04-30 02:49:01+00:00,383.8463,5.09,12.65,47.84626,-54.09684
2021-04-30 02:59:01+00:00,375.7979,5.1,12.65,47.84626,-54.09684
2021-04-30 03:09:01+00:00,365.9379,5.1,12.65,47.84626,-54.09684
2021-04-30 03:19:01+00:00,362.2546,5.1,12.65,47.84626,-54.09684
2021-04-30 03:29:01+00:00,357.3729,5.1,12.65,47.84626,-54.09684
2021-04-30 03:39:01+00:00,346.7147,5.1,12.65,47.84626,-54.09684
2021-04-30 03:49:01+00:00,338.3579,5.0,12.65,47.84626,-54.09684
2021-04-30 03:59:01+00:00,335.1763,5.02,12.65,47.84626,-54.09684
2021-04-30 04:09:01+00:00,326.593,5.05,12.65,47.84626,-54.09684
2021-04-30 04:19:01+00:00,313.7463,5.0,12.65,47.84626,-54.09684
2021-04-30 04:29:01+00:00,303.2596,5.0,12.65,47.84626,-54.09684
2021-04-30 04:39:01+00:00,300.618,5.0,12.65,47.84626,-54.09684
2021-04-30 04:49:01+00:00,297.608,5.0,12.65,47.84626,-54.09684
2021-04-30 04:59:01+00:00,281.3214,4.98,12.65,47.84626,-54.09684
2021-04-30 05:09:01+00:00,267.4864,4.95,12.65,47.84626,-54.09684
2021-04-30 05:19:01+00:00,255.9647,4.92,12.65,47.84626,-54.09684
2021-04-30 05:29:01+00:00,243.8698,4.9,12.65,47.84626,-54.09684
2021-04-30 05:39:01+00:00,231.3864,4.9,12.65,47.84626,-54.09684
2021-04-30 05:49:01+00:00,224.2865,4.9,12.65,47.84626,-54.09684
2021-04-30 05:59:01+00:00,219.0464,4.9,12.65,47.84626,-54.09684
2021-04-30 06:09:01+00:00,209.4165,4.9,12.65,47.84626,-54.09684
2021-04-30 06:19:00+00:00,195.1964,4.9,12.57,47.84626,-54.09684
2021-04-30 06:29:00+00:00,186.2165,4.9,12.57,47.84626,-54.09684
2021-04-30 06:39:00+00:00,183.6481,4.9,12.57,47.84626,-54.09684
2021-04-30 06:49:00+00:00,180.2348,4.9,12.57,47.84626,-54.09684
2021-04-30 06:59:00+00:00,173.8131,4.9,12.57,47.84626,-54.09684
2021-04-30 07:09:00+00:00,171.1298,4.93,12.57,47.84626,-54.09684
2021-04-30 07:19:01+00:00,172.7314,4.96,12.57,47.84626,-54.09684
2021-04-30 07:29:01+00:00,172.2731,4.96,12.57,47.84626,-54.09684
2021-04-30 07:39:01+00:00,170.4464,4.98,12.57,47.84626,-54.09684
2021-04-30 07:49:01+00:00,172.9632,4.99,12.57,47.84626,-54.09684
2021-04-30 07:59:01+00:00,177.3231,4.99,12.57,47.84626,-54.09684
2021-04-30 08:09:01+00:00,179.4231,5.0,12.57,47.84626,-54.09684
2021-04-30 08:19:01+00:00,180.9932,5.0,12.57,47.84626,-54.09684
2021-04-30 08:29:01+00:00,185.0882,5.0,12.57,47.84626,-54.09684
2021-04-30 08:39:01+00:00,189.1148,5.0,12.57,47.84626,-54.09684
2021-04-30 08:49:01+00:00,188.7981,4.99,12.57,47.84626,-54.09684
2021-04-30 08:59:01+00:00,193.4865,4.99,12.57,47.84626,-54.09684
2021-04-30 09:09:01+00:00,197.7231,4.94,12.57,47.84626,-54.09684
2021-04-30 09:19:00+00:00,195.8515,4.9,12.49,47.84626,-54.09684
2021-04-30 09:29:00+00:00,194.5048,4.9,12.49,47.84626,-54.09684
2021-04-30 09:39:00+00:00,201.0497,4.9,12.49,47.84626,-54.09684
2021-04-30 09:49:00+00:00,205.9248,4.9,12.49,47.84626,-54.09684
2021-04-30 09:59:00+00:00,202.9531,4.9,12.49,47.84626,-54.09684
2021-04-30 10:09:00+00:00,206.4481,4.9,12.49,47.84626,-54.09684
2021-04-30 10:19:01+00:00,215.5481,4.9,12.65,47.84626,-54.09684
2021-04-30 10:29:01+00:00,218.6631,4.9,12.65,47.84626,-54.09684
2021-04-30 10:39:01+00:00,219.9331,4.9,12.65,47.84626,-54.09684
2021-04-30 10:49:01+00:00,230.1314,4.93,12.65,47.84626,-54.09684
2021-04-30 10:59:01+00:00,241.6014,4.98,12.65,47.84626,-54.09684
2021-04-30 11:09:01+00:00,246.3397,5.0,12.65,47.84626,-54.09684
2021-04-30 11:19:01+00:00,251.4447,5.0,13.05,47.84626,-54.09684
2021-04-30 11:29:01+00:00,256.4031,5.0,13.05,47.84626,-54.09684
2021-04-30 11:39:01+00:00,264.5748,5.0,13.05,47.84626,-54.09684
2021-04-30 11:49:01+00:00,271.4247,5.0,13.05,47.84626,-54.09684
2021-04-30 11:59:01+00:00,280.158,5.0,13.05,47.84626,-54.09684
2021-04-30 12:09:01+00:00,287.3497,5.0,13.05,47.84626,-54.09684
2021-04-30 12:19:01+00:00,296.0764,5.0,13.37,47.84626,-54.09684
2021-04-30 12:29:01+00:00,303.9514,5.0,13.37,47.84626,-54.09684
2021-04-30 12:39:01+00:00,311.7146,5.0,13.37,47.84626,-54.09684
2021-04-30 12:49:01+00:00,322.158,5.04,13.37,47.84626,-54.09684
2021-04-30 12:59:01+00:00,331.103,5.02,13.37,47.84626,-54.09684
2021-04-30 13:09:01+00:00,338.843,5.0,13.37,47.84626,-54.09684
2021-04-30 13:19:00+00:00,342.8246,5.04,13.6,47.84626,-54.09684
2021-04-30 13:29:00+00:00,343.93300000000005,5.06,13.6,47.84626,-54.09684
2021-04-30 13:39:00+00:00,344.2596,5.05,13.6,47.84626,-54.09684
2021-04-30 13:49:00+00:00,341.0730000000001,5.03,13.6,47.84626,-54.09684
2021-04-30 13:59:00+00:00,342.9729,5.03,13.6,47.84626,-54.09684
2021-04-30 14:09:00+00:00,346.99300000000005,5.0,13.6,47.84626,-54.09684
2021-04-30 14:19:01+00:00,354.2263,5.0,14.0,47.84626,-54.09684
2021-04-30 14:29:01+00:00,349.3279,5.0,14.0,47.84626,-54.09684
2021-04-30 14:39:01+00:00,350.1479,5.0,14.0,47.84626,-54.09684
2021-04-30 14:49:01+00:00,353.343,5.0,14.0,47.84626,-54.09684
2021-04-30 14:59:01+00:00,344.9496,5.02,14.0,47.84626,-54.09684
2021-04-30 15:09:01+00:00,338.3963,5.06,14.0,47.84626,-54.09684
2021-04-30 15:19:01+00:00,343.3862,5.04,14.64,47.84626,-54.09684
2021-04-30 15:29:01+00:00,340.6913,5.06,14.64,47.84626,-54.09684
2021-04-30 15:39:01+00:00,330.0397,5.08,14.64,47.84626,-54.09684
2021-04-30 15:49:01+00:00,328.8713,5.09,14.64,47.84626,-54.09684
2021-04-30 15:59:01+00:00,329.528,5.05,14.64,47.84626,-54.09684
2021-04-30 16:09:01+00:00,325.5729,5.07,14.64,47.84626,-54.09684
2021-04-30 16:19:01+00:00,317.5896,5.1,14.56,47.84626,-54.09684
2021-04-30 16:29:01+00:00,317.4197,5.1,14.56,47.84626,-54.09684
2021-04-30 16:39:01+00:00,314.9247,5.1,14.56,47.84626,-54.09684
2021-04-30 16:49:01+00:00,300.9847,5.1,14.56,47.84626,-54.09684
2021-04-30 16:59:01+00:00,286.5714,5.15,14.56,47.84626,-54.09684
2021-04-30 17:09:01+00:00,280.613,5.2,14.56,47.84626,-54.09684
2021-04-30 17:19:01+00:00,270.3647,5.2,14.4,47.84626,-54.09684
2021-04-30 17:29:01+00:00,254.8997,5.29,14.4,47.84626,-54.09684
2021-04-30 17:39:01+00:00,248.1047,5.3,14.4,47.84626,-54.09684
2021-04-30 17:49:01+00:00,242.8764,5.35,14.4,47.84626,-54.09684
2021-04-30 17:59:01+00:00,232.1081,5.39,14.4,47.84626,-54.09684
2021-04-30 18:09:01+00:00,222.7531,5.4,14.4,47.84626,-54.09684
2021-04-30 18:19:01+00:00,215.3631,5.4,14.24,47.84626,-54.09684
2021-04-30 18:29:01+00:00,206.4497,5.4,14.24,47.84626,-54.09684
2021-04-30 18:39:01+00:00,196.9698,5.4,14.24,47.84626,-54.09684
2021-04-30 18:49:01+00:00,191.4598,5.4,14.24,47.84626,-54.09684
2021-04-30 18:59:01+00:00,187.2498,5.4,14.24,47.84626,-54.09684
2021-04-30 19:09:01+00:00,181.4365,5.4,14.24,47.84626,-54.09684
2021-04-30 19:19:01+00:00,178.2515,5.44,14.08,47.84626,-54.09684
2021-04-30 19:29:01+00:00,177.8248,5.48,14.08,47.84626,-54.09684
2021-04-30 19:39:01+00:00,177.7481,5.76,14.08,47.84626,-54.09684
2021-04-30 19:49:01+00:00,182.9581,6.2,14.08,47.84626,-54.09684
2021-04-30 19:59:01+00:00,183.6981,6.66,14.08,47.84626,-54.09684
2021-04-30 20:09:01+00:00,180.7398,6.8,14.08,47.84626,-54.09684
2021-04-30 20:19:01+00:00,187.3231,6.59,13.76,47.84626,-54.09684
2021-04-30 20:29:01+00:00,197.6281,6.2,13.76,47.84626,-54.09684
2021-04-30 20:39:01+00:00,202.9015,6.0,13.76,47.84626,-54.09684
2021-04-30 20:49:01+00:00,199.9548,6.0,13.76,47.84626,-54.09684
2021-04-30 20:59:01+00:00,201.8715,5.8,13.76,47.84626,-54.09684
2021-04-30 21:09:01+00:00,213.5531,5.66,13.76,47.84626,-54.09684
2021-04-30 21:19:01+00:00,215.1231,5.6,13.53,47.84626,-54.09684
2021-04-30 21:29:01+00:00,209.3831,5.6,13.53,47.84626,-54.09684
2021-04-30 21:39:01+00:00,217.2081,5.6,13.53,47.84626,-54.09684
2021-04-30 21:49:01+00:00,228.6997,5.5,13.53,47.84626,-54.09684
2021-04-30 21:59:01+00:00,228.2031,5.5,13.53,47.84626,-54.09684
2021-04-30 22:09:01+00:00,226.8781,5.58,13.53,47.84626,-54.09684
2021-04-30 22:19:01+00:00,239.2598,5.5,13.13,47.84626,-54.09684
2021-04-30 22:29:01+00:00,249.4314,5.5,13.13,47.84626,-54.09684
2021-04-30 22:39:01+00:00,247.5864,5.5,13.13,47.84626,-54.09684
2021-04-30 22:49:01+00:00,242.2331,5.5,13.13,47.84626,-54.09684
2021-04-30 22:59:01+00:00,249.2197,5.4,13.13,47.84626,-54.09684
2021-04-30 23:09:01+00:00,260.7247,5.4,13.13,47.84626,-54.09684
2021-04-30 23:19:01+00:00,263.0598,5.5,12.81,47.84626,-54.09684
2021-04-30 23:29:01+00:00,263.3181,5.5,12.81,47.84626,-54.09684
2021-04-30 23:39:01+00:00,274.5264,5.5,12.81,47.84626,-54.09684
2021-04-30 23:49:01+00:00,297.7281,5.2,12.81,47.84626,-54.09684
2021-04-30 23:59:01+00:00,310.2481,5.07,12.81,47.84626,-54.09684
